| time (UTC) | temp C | wind direction | speed KPH | gust KPH | rain 1hr cm | rain 24hr cm | rain mn cm | humidity % | barometer mb |
| 20260506044538 | 10 | 302 | 0.0 | 0.0 | 0.00 | 0.36 | 0.28 | 91 | 1010.5 |
| 20260506043032 | 11 | 302 | 0.0 | 0.0 | 0.00 | 0.36 | 0.28 | 91 | 1010.3 |
| 20260506041537 | 11 | 302 | 0.0 | 0.0 | 0.00 | 0.36 | 0.28 | 91 | 1010.2 |
| 20260506040030 | 11 | 302 | 0.0 | 0.0 | 0.00 | 0.36 | 0.28 | 91 | 1010.2 |
| 20260506034528 | 11 | 302 | 0.0 | 0.0 | 0.00 | 0.36 | 0.28 | 91 | 1009.9 |
| 20260506033026 | 12 | 302 | 0.0 | 0.0 | 0.00 | 0.36 | 0.28 | 90 | 1009.6 |
| 20260506031529 | 12 | 302 | 0.0 | 0.0 | 0.00 | 0.36 | 0.28 | 89 | 1009.4 |
| 20260506030024 | 12 | 302 | 0.0 | 0.0 | 0.00 | 0.36 | 0.28 | 89 | 1009.2 |
| 20260506024535 | 12 | 302 | 0.0 | 0.0 | 0.00 | 0.38 | 0.28 | 89 | 1009.3 |
| 20260506023022 | 12 | 302 | 0.0 | 0.0 | 0.00 | 0.38 | 0.28 | 88 | 1009.3 |
| 20260506021520 | 12 | 302 | 0.0 | 1.6 | 0.00 | 0.38 | 0.28 | 86 | 1009.1 |
| 20260506020021 | 12 | 302 | 0.0 | 3.2 | 0.00 | 0.38 | 0.28 | 87 | 1009.0 |
| 20260506014522 | 12 | 302 | 0.0 | 1.6 | 0.00 | 0.38 | 0.28 | 87 | 1009.0 |
| 20260506013020 | 13 | 302 | 0.0 | 0.0 | 0.00 | 0.38 | 0.28 | 87 | 1009.0 |
| 20260506011541 | 12 | 302 | 0.0 | 3.2 | 0.00 | 0.38 | 0.28 | 86 | 1009.1 |
| 20260506010018 | 12 | 302 | 0.0 | 1.6 | 0.00 | 0.38 | 0.28 | 88 | 1009.0 |
| 20260506004515 | 12 | 303 | 0.0 | 3.2 | 0.00 | 0.38 | 0.28 | 88 | 1009.0 |
| 20260506003017 | 12 | 303 | 0.0 | 1.6 | 0.00 | 0.38 | 0.28 | 89 | 1009.0 |
| 20260506001512 | 12 | 303 | 0.0 | 1.6 | 0.00 | 0.38 | 0.28 | 90 | 1009.0 |
| 20260506000016 | 12 | 303 | 0.0 | 1.6 | 0.00 | 0.38 | 0.28 | 90 | 1009.0 |
| 20260505234529 | 12 | 303 | 0.0 | 3.2 | 0.00 | 0.38 | 0.28 | 90 | 1008.9 |
| 20260505233011 | 12 | 229 | 0.0 | 1.6 | 0.00 | 0.38 | 0.28 | 89 | 1008.8 |
| 20260505231510 | 12 | 229 | 0.0 | 0.0 | 0.00 | 0.38 | 0.28 | 89 | 1008.8 |
| 20260505230010 | 12 | 229 | 0.0 | 0.0 | 0.00 | 0.38 | 0.28 | 90 | 1008.7 |
| 20260505224509 | 12 | 229 | 0.0 | 4.8 | 0.00 | 0.38 | 0.28 | 90 | 1008.7 |
| 20260505223008 | 12 | 210 | 0.0 | 1.6 | 0.00 | 0.38 | 0.28 | 90 | 1008.8 |
| 20260505221507 | 12 | 210 | 0.0 | 0.0 | 0.00 | 0.38 | 0.28 | 91 | 1008.8 |
| 20260505220005 | 12 | 210 | 0.0 | 0.0 | 0.00 | 0.38 | 0.28 | 91 | 1008.9 |
| 20260505214509 | 12 | 210 | 0.0 | 1.6 | 0.00 | 0.48 | 0.28 | 91 | 1008.9 |
| 20260505213004 | 12 | 210 | 0.0 | 1.6 | 0.00 | 0.48 | 0.28 | 91 | 1009.0 |
| 20260505211503 | 11 | 210 | 0.0 | 1.6 | 0.00 | 0.48 | 0.28 | 90 | 1009.1 |
| 20260505210002 | 12 | 210 | 0.0 | 1.6 | 0.00 | 0.48 | 0.28 | 91 | 1009.0 |
| 20260505204501 | 12 | 210 | 0.0 | 4.8 | 0.00 | 0.48 | 0.28 | 92 | 1009.0 |
| 20260505203112 | 11 | 207 | 0.0 | 0.0 | 0.00 | 0.48 | 0.28 | 92 | 1008.9 |
| 20260505201558 | 11 | 207 | 0.0 | 3.2 | 0.00 | 0.48 | 0.28 | 92 | 1008.9 |
| 20260505200058 | 11 | 207 | 0.0 | 4.8 | 0.00 | 0.48 | 0.28 | 93 | 1009.0 |
| 20260505194617 | 11 | 207 | 0.0 | 0.0 | 0.00 | 0.51 | 0.28 | 94 | 1009.0 |
| 20260505193054 | 11 | 235 | 0.0 | 0.0 | 0.00 | 0.51 | 0.28 | 95 | 1009.2 |
| 20260505191605 | 11 | 235 | 0.0 | 3.2 | 0.00 | 0.51 | 0.28 | 95 | 1008.9 |
| 20260505190052 | 10 | 235 | 0.0 | 6.4 | 0.00 | 0.51 | 0.28 | 95 | 1009.0 |
| 20260505184549 | 10 | 205 | 0.0 | 4.8 | 0.00 | 0.51 | 0.28 | 95 | 1008.7 |
| 20260505183053 | 11 | 203 | 0.0 | 3.2 | 0.00 | 0.51 | 0.28 | 96 | 1008.8 |
| 20260505181547 | 10 | 203 | 0.0 | 4.8 | 0.00 | 0.51 | 0.28 | 96 | 1008.7 |
| 20260505180048 | 10 | 171 | 0.0 | 0.0 | 0.00 | 0.51 | 0.28 | 96 | 1008.5 |
| 20260505174541 | 10 | 171 | 0.0 | 3.2 | 0.00 | 0.51 | 0.28 | 96 | 1008.5 |
| 20260505173037 | 10 | 259 | 0.0 | 3.2 | 0.00 | 0.51 | 0.28 | 96 | 1008.2 |
| 20260505171533 | 10 | 273 | 0.0 | 6.4 | 0.00 | 0.51 | 0.28 | 96 | 1008.2 |
| 20260505170031 | 10 | 243 | 0.0 | 6.4 | 0.00 | 0.51 | 0.28 | 96 | 1008.3 |
| 20260505164527 | 10 | 243 | 0.0 | 3.2 | 0.00 | 0.53 | 0.28 | 96 | 1008.0 |
| 20260505163024 | 9 | 243 | 0.0 | 3.2 | 0.03 | 0.53 | 0.28 | 96 | 1008.2 |
| 20260505161519 | 9 | 243 | 0.0 | 1.6 | 0.05 | 0.53 | 0.28 | 96 | 1008.2 |
| 20260505153011 | 9 | 243 | 0.0 | 0.0 | 0.05 | 0.51 | 0.25 | 96 | 1008.0 |
| 20260505151512 | 9 | 243 | 0.0 | 0.0 | 0.00 | 0.46 | 0.20 | 96 | 1008.0 |
| 20260505124503 | 8 | 243 | 0.0 | 0.0 | 0.00 | 0.66 | 0.15 | 96 | 1007.5 |
| 20260505123001 | 8 | 243 | 0.0 | 0.0 | 0.00 | 0.66 | 0.15 | 96 | 1007.2 |
| 20260505121627 | 8 | 243 | 0.0 | 0.0 | 0.00 | 0.66 | 0.15 | 96 | 1007.2 |
| 20260505120059 | 8 | 243 | 0.0 | 0.0 | 0.00 | 0.66 | 0.15 | 96 | 1007.1 |
| 20260505114600 | 8 | 243 | 0.0 | 0.0 | 0.00 | 0.66 | 0.15 | 96 | 1007.1 |
| 20260505113102 | 8 | 243 | 0.0 | 0.0 | 0.03 | 0.66 | 0.15 | 96 | 1007.2 |
| 20260505111556 | 8 | 243 | 0.0 | 0.0 | 0.03 | 0.66 | 0.15 | 96 | 1007.5 |
| 20260505101550 | 8 | 243 | 0.0 | 0.0 | 0.00 | 0.64 | 0.13 | 95 | 1007.6 |
| 20260505100123 | 8 | 243 | 0.0 | 1.6 | 0.00 | 0.64 | 0.13 | 95 | 1007.6 |
| 20260505094548 | 8 | 243 | 0.0 | 3.2 | 0.03 | 0.64 | 0.13 | 95 | 1007.6 |
| 20260505093052 | 8 | 243 | 0.0 | 1.6 | 0.03 | 0.64 | 0.13 | 95 | 1007.6 |
| 20260505091608 | 8 | 243 | 0.0 | 3.2 | 0.05 | 0.64 | 0.13 | 95 | 1007.8 |
| 20260505090057 | 8 | 243 | 0.0 | 3.2 | 0.08 | 0.64 | 0.13 | 95 | 1007.9 |
| 20260505084546 | 8 | 243 | 0.0 | 1.6 | 0.05 | 0.61 | 0.10 | 95 | 1007.9 |
| 20260505083049 | 8 | 243 | 0.0 | 0.0 | 0.05 | 0.61 | 0.10 | 95 | 1008.0 |
| 20260505081545 | 8 | 243 | 0.0 | 0.0 | 0.05 | 0.58 | 0.08 | 95 | 1008.0 |
| 20260505080048 | 8 | 243 | 0.0 | 0.0 | 0.05 | 0.56 | 0.05 | 95 | 1008.0 |
| 20260505074542 | 8 | 243 | 0.0 | 0.0 | 0.05 | 0.56 | 0.05 | 95 | 1008.0 |
| 20260505073052 | 8 | 243 | 0.0 | 0.0 | 0.10 | 0.56 | 0.05 | 95 | 1007.9 |
| 20260505071542 | 8 | 243 | 0.0 | 0.0 | 0.08 | 0.53 | 0.03 | 95 | 1008.0 |
| 20260505070037 | 9 | 243 | 0.0 | 0.0 | 0.05 | 0.51 | 0.00 | 95 | 1007.9 |
| 20260505064534 | 9 | 243 | 0.0 | 0.0 | 0.05 | 0.48 | 0.48 | 95 | 1007.9 |
| 20260505063044 | 9 | 243 | 0.0 | 0.0 | 0.03 | 0.46 | 0.46 | 95 | 1007.8 |
| 20260505061536 | 9 | 243 | 0.0 | 3.2 | 0.03 | 0.46 | 0.46 | 95 | 1007.9 |